Probability
20 20 19 17 17 17 14 12 12 11 9 8 9 9 10 11 13 12 9 6 4 3 3 2 2 2 3 3 1 0 0 0 0 0 0 2 4 4 2 1 1 1 0
19 19 17 16 16 14 12 10 10 8 6 5 7 8 10 11 11 10 7 5 3 2 1 1 1 1 1 1 0 0 0 0 0 0 0 2 3 3 2 1 1 0 0
16 16 15 14 13 11 10 9 7 5 4 3 4 6 8 9 9 8 7 5 3 1 0 0 0 0 0 0 0 0 0 0 0 0 0 1 3 3 2 1 1 1 0
13 13 12 12 11 10 10 9 6 4 3 3 3 4 5 6 6 7 7 5 3 2 1 1 1 0 0 0 0 0 0 0 0 0 0 1 2 3 3 2 2 2 1
11 10 10 10 9 9 9 9 7 4 3 3 3 4 4 4 4 5 5 4 4 4 3 2 2 1 0 0 0 0 0 0 0 0 0 1 2 3 3 3 3 2 1
9 7 7 8 9 8 8 9 7 4 3 3 3 3 4 3 2 2 3 3 4 5 4 3 2 1 0 0 0 0 0 0 0 0 0 1 2 3 3 3 3 2 1
6 5 5 6 8 8 8 8 8 6 5 4 4 4 4 3 1 0 1 1 3 4 3 2 1 1 0 0 0 0 0 0 0 0 0 1 2 3 3 3 3 3 2
5 4 3 5 7 9 8 8 9 9 8 7 6 6 6 5 2 0 0 0 1 2 2 1 0 0 0 0 1 0 0 0 0 0 0 0 1 2 3 3 3 3 3
5 4 3 4 7 9 9 10 10 10 9 9 9 9 9 6 2 0 0 0 0 1 1 1 0 0 0 0 0 0 1 1 0 0 0 0 0 1 1 2 3 3 3
4 3 3 4 7 8 9 10 10 9 9 10 10 10 9 6 3 1 0 0 0 0 0 0 0 0 0 0 0 0 1 1 1 0 0 0 0 1 1 1 3 3 3
4 3 3 5 6 7 8 10 9 8 9 9 9 9 8 6 3 1 0 0 0 0 0 0 0 0 0 0 0 0 1 1 1 1 0 0 0 1 1 2 3 4 4
5 4 5 6 6 6 8 9 7 7 7 8 7 6 6 5 3 1 0 0 0 0 0 0 0 0 0 0 0 0 0 1 2 1 0 0 0 1 2 3 4 5 6
6 6 6 6 6 6 7 7 6 4 4 4 4 4 4 4 3 1 0 0 0 0 0 0 0 0 0 0 0 0 0 1 2 1 0 0 0 0 2 4 5 6 6
6 6 7 7 7 7 6 6 5 2 1 1 2 3 3 3 3 2 1 0 0 0 0 0 0 0 0 0 0 0 0 0 1 1 0 0 0 0 1 3 4 5 5
6 6 6 7 7 7 7 6 4 2 0 0 1 2 3 3 3 2 1 0 0 0 0 0 0 0 0 0 0 0 0 0 0 0 0 0 0 0 0 1 2 2 2
7 6 6 6 6 6 7 5 3 1 0 0 0 1 1 2 1 1 1 0 0 0 0 0 0 0 0 0 0 0 0 0 0 0 0 0 0 0 0 0 1 1 0
7 6 5 5 5 5 5 4 2 1 0 0 0 0 0 0 0 0 0 0 0 0 0 0 0 0 0 0 0 0 0 0 0 0 0 0 0 0 0 0 1 1 1
7 7 6 6 5 4 3 2 1 1 0 0 0 0 0 0 0 0 0 0 0 0 0 0 0 0 0 0 0 0 0 0 0 0 0 0 1 2 1 0 0 1 1
7 6 6 6 6 4 2 1 0 0 0 0 0 0 0 0 0 0 0 0 0 0 0 0 0 0 0 0 0 0 0 0 0 0 1 1 2 3 2 1 0 0 1
6 5 5 6 6 5 2 0 0 0 1 1 1 0 0 0 0 0 0 0 0 0 0 0 0 0 0 0 0 0 0 0 0 0 1 2 2 2 2 1 0 0 0
4 4 4 4 5 4 2 1 0 1 2 3 2 0 0 0 0 0 0 0 0 0 0 0 0 0 0 0 0 0 0 0 0 0 1 1 1 1 1 0 0 0 0
4 5 4 4 4 2 2 2 2 2 3 4 3 1 0 0 1 1 1 0 0 0 0 0 0 0 0 0 0 0 0 0 0 0 0 0 0 0 0 0 0 0 0
4 5 5 5 4 2 2 3 3 3 3 4 4 2 1 0 1 1 1 0 0 0 0 0 0 0 0 0 0 0 0 0 0 0 0 0 0 0 0 0 0 0 0
4 4 4 4 4 3 2 2 3 3 3 3 4 3 2 1 0 0 0 0 0 0 0 0 0 0 0 0 0 0 0 0 0 0 0 0 0 0 0 0 0 0 0
3 3 2 3 3 3 2 1 2 3 3 4 4 4 4 2 1 1 0 0 0 0 0 0 0 0 0 0 0 0 0 0 0 0 0 0 0 0 0 0 0 0 0
3 3 3 3 3 2 1 2 2 3 3 4 4 5 5 3 2 2 1 0 0 0 0 0 0 0 0 0 0 0 0 0 0 0 0 0 0 0 0 0 0 0 0
Wind_Speed
5 4 3 3 2 2 2 1 1 1 1 2 2 2 3 3 3 3 2 2 2 2 2 2 2 1 1 1 1 1 1 1 2 2 1 1 1 2 2 2 2 4 5
4 4 3 2 2 2 2 1 1 2 2 2 2 2 3 3 3 3 3 3 3 3 3 2 2 1 1 1 1 2 2 1 2 3 2 2 2 2 2 3 3 3 3
4 4 4 3 2 2 2 2 2 2 2 3 2 2 2 2 3 3 3 3 3 3 3 3 2 2 2 1 2 2 2 2 2 2 3 2 2 2 1 3 3 2 4
4 4 3 3 3 2 2 2 2 2 3 3 3 3 2 3 2 2 2 2 2 2 2 3 2 2 2 2 3 2 2 2 2 3 3 2 1 1 1 2 2 2 3
4 4 4 3 3 3 2 3 2 3 3 3 3 3 3 3 2 2 2 2 2 2 2 2 2 2 3 2 2 1 1 1 2 3 3 2 1 1 1 2 2 2 2
3 4 4 4 4 3 3 3 2 3 3 3 3 3 3 2 2 2 1 2 2 2 2 2 2 4 3 3 3 3 3 3 2 2 3 3 2 2 1 2 2 2 2
3 3 3 3 3 3 3 3 3 2 2 2 3 2 2 2 3 2 1 2 3 3 3 3 3 2 3 2 3 4 5 6 6 3 4 4 4 3 2 3 3 3 4
3 3 3 3 3 2 2 2 2 1 2 2 3 2 2 3 3 3 2 3 3 3 3 3 2 1 2 2 2 3 4 4 5 5 4 5 5 3 2 3 4 4 5
3 3 3 3 3 3 3 2 2 2 3 3 3 3 2 3 3 4 4 3 3 3 3 3 4 3 3 3 3 3 3 3 5 5 6 6 7 7 4 2 3 3 4
3 3 2 2 2 2 2 2 2 2 3 3 3 3 3 4 5 5 5 3 3 3 3 4 5 5 5 4 4 3 4 4 3 4 5 6 7 8 8 5 4 3 3
3 3 2 2 2 3 2 2 3 3 3 3 2 2 3 4 6 6 6 4 3 3 2 2 3 6 6 6 5 4 6 5 4 4 4 5 5 5 4 5 4 4 4
2 3 2 2 3 3 3 3 3 3 3 3 3 3 3 4 5 5 6 6 5 3 3 1 2 5 5 6 5 6 6 5 4 4 4 4 4 3 3 4 5 5 5
2 2 2 3 2 2 3 4 3 3 4 4 4 4 4 4 4 6 7 7 6 3 2 1 3 5 5 5 8 9 6 4 4 4 4 4 3 3 3 3 4 5 6
3 3 3 3 3 3 3 4 4 4 4 4 4 3 3 3 3 3 3 3 4 4 3 3 5 8 7 6 5 5 5 5 5 4 4 4 3 3 3 3 3 3 4
3 3 4 4 4 4 4 3 4 2 2 3 2 2 2 3 4 5 4 3 2 2 2 3 4 4 4 4 4 5 5 5 5 4 4 4 3 3 3 3 3 3 4
4 5 4 4 4 4 4 4 4 4 4 4 4 4 2 4 6 5 4 3 3 2 2 3 3 4 4 4 3 3 3 3 3 3 3 3 3 3 3 3 3 3 4
4 5 4 5 4 4 4 4 4 4 4 4 5 5 5 6 6 5 4 3 3 3 3 4 4 3 3 3 3 3 2 2 2 2 2 2 3 3 3 3 3 3 3
5 6 5 4 4 4 4 4 4 4 4 4 4 7 7 7 7 6 5 3 2 4 5 5 4 3 3 3 3 2 1 1 1 2 2 2 2 3 2 3 3 3 2
5 4 4 5 5 4 4 4 4 4 4 3 3 4 6 6 5 6 5 4 5 4 5 4 3 3 2 2 1 1 1 1 2 2 2 2 2 2 3 3 2 3 3
4 6 5 5 5 4 4 4 3 3 2 2 3 3 4 4 3 4 5 5 5 4 3 3 2 2 2 1 1 1 1 2 1 2 2 2 2 2 2 3 2 2 2
4 4 5 5 4 3 3 3 3 3 2 2 2 3 6 5 4 4 4 4 3 2 2 2 2 2 1 1 1 1 2 2 1 1 2 2 2 2 2 3 2 2 2
3 3 3 3 3 2 2 2 2 2 2 2 1 3 6 3 2 1 2 2 3 2 2 2 2 2 1 1 1 1 1 2 2 2 2 2 2 2 2 2 3 2 2
4 3 2 2 2 2 2 3 3 2 2 1 0 1 2 2 2 1 2 2 1 1 1 1 1 1 1 1 1 1 1 2 2 2 3 3 3 2 2 3 3 2 2
4 3 3 2 2 2 3 3 2 2 1 1 1 0 1 1 1 1 1 1 1 1 1 1 1 1 1 1 1 2 2 2 2 2 3 3 4 3 3 3 3 2 2
3 3 2 2 3 3 3 2 2 1 1 1 0 1 1 1 1 1 1 1 1 2 2 1 0 0 1 2 2 3 2 3 2 3 3 3 4 3 3 3 3 2 2
4 3 3 2 2 2 2 1 1 1 1 1 0 1 2 2 1 1 1 1 1 1 1 1 0 1 2 2 3 3 2 1 2 2 3 3 3 3 3 3 3 3 2
Wind_Direction
173 172 174 172 190 196 191 199 195 206 226 236 234 232 227 221 219 219 214 211 217 220 224 221 243 262 293 305 307 290 285 265 261 278 258 251 230 244 239 247 234 215 213
171 165 168 164 167 164 174 194 207 217 238 244 237 234 231 220 210 214 220 219 216 213 214 210 230 253 266 281 291 295 289 266 256 273 269 248 242 228 228 245 249 238 222
168 168 164 160 163 177 195 203 218 228 242 243 237 240 237 222 211 216 214 216 219 219 216 215 216 222 248 261 269 276 281 283 266 269 270 254 246 232 233 269 263 259 260
163 168 165 173 179 193 212 216 228 233 243 238 227 230 238 231 216 209 194 206 221 220 217 220 216 216 233 249 254 258 269 299 284 275 271 260 250 250 233 264 273 257 273
167 176 179 177 184 194 212 225 234 240 247 240 222 224 227 224 208 193 202 207 207 219 223 218 214 195 209 227 260 278 284 283 292 288 285 283 284 305 289 288 291 284 272
179 185 184 184 186 195 209 220 228 240 245 245 237 230 236 228 157 165 213 210 214 214 224 225 202 196 190 205 238 248 237 238 266 291 293 288 290 296 288 292 297 298 290
180 197 184 189 193 196 208 208 222 240 248 245 237 229 208 167 163 165 211 230 221 216 217 223 245 211 164 203 228 246 254 241 224 229 265 280 285 283 287 285 282 278 272
190 202 192 195 204 207 214 221 229 243 255 254 245 222 189 179 177 181 209 222 228 220 221 214 217 221 219 240 249 240 240 240 230 225 237 259 273 277 263 263 268 273 268
207 207 204 201 209 214 218 221 223 245 246 241 237 211 191 173 187 193 204 219 221 226 227 211 209 212 205 223 244 260 265 257 251 240 229 241 253 261 262 274 272 276 287
220 216 212 208 213 226 226 225 230 248 250 244 228 210 192 180 193 203 212 226 221 227 226 210 208 209 200 210 226 243 258 268 279 272 258 250 247 251 244 227 242 259 278
224 220 214 208 211 221 225 226 234 248 251 242 226 215 193 187 190 204 211 226 237 237 235 219 201 189 201 217 231 237 246 259 269 265 259 249 238 237 229 218 222 232 253
238 227 216 208 229 230 220 232 236 248 245 229 222 226 210 190 190 202 210 225 252 254 249 237 189 195 211 226 234 244 256 265 258 259 259 258 253 243 232 224 222 227 236
246 240 236 228 226 226 229 229 228 230 242 232 222 219 212 194 182 193 208 230 249 256 269 257 230 232 238 240 239 240 243 245 250 253 258 260 255 247 233 231 232 233 243
242 244 243 236 232 228 235 232 233 228 237 241 229 223 206 180 171 178 195 220 236 245 257 258 242 238 241 250 246 231 227 234 241 251 256 259 258 248 241 239 240 238 248
244 243 245 241 236 233 234 244 243 244 233 250 259 241 211 196 192 188 196 216 229 230 236 238 235 228 228 230 230 225 222 226 235 244 252 257 259 260 258 251 239 242 243
244 243 240 244 241 230 226 232 241 232 227 230 230 228 216 174 164 168 183 202 220 210 223 244 248 246 245 247 242 233 227 229 239 242 247 253 260 264 264 258 247 246 250
253 254 249 249 247 238 231 225 228 229 239 246 237 218 200 183 177 179 187 206 224 195 224 251 252 255 257 261 257 248 239 233 238 248 248 253 261 267 269 266 265 257 255
248 252 254 257 255 245 239 238 233 220 218 227 229 214 198 190 193 198 187 181 223 221 237 247 248 250 254 262 267 267 272 283 279 275 273 266 257 260 263 269 270 269 268
251 251 255 263 261 253 247 249 246 238 226 208 182 178 194 190 197 207 192 220 237 232 235 244 251 257 265 273 276 277 273 272 275 277 275 279 277 271 265 265 269 276 272
241 246 256 262 260 250 246 249 250 246 237 205 194 171 159 170 192 197 204 225 244 249 249 257 265 270 271 276 290 303 302 294 280 265 278 283 287 287 285 278 276 280 277
250 239 240 253 257 262 261 252 251 245 235 222 198 170 169 190 209 203 203 217 233 254 262 274 281 278 268 262 274 300 310 306 313 312 314 306 295 294 297 293 276 271 277
265 256 242 244 248 259 286 289 272 252 249 231 195 166 172 202 227 212 207 224 233 237 247 257 276 288 304 304 330 322 316 330 353 354 328 313 305 289 278 283 290 291 292
262 258 242 239 229 236 251 258 265 259 259 262 243 157 171 215 228 230 247 240 228 238 251 253 290 326 10 28 33 27 13 11 1 350 324 312 304 296 283 274 274 275 287
258 256 244 238 245 234 242 245 258 262 272 293 306 282 210 216 244 252 256 251 238 248 264 259 260 333 10 17 29 49 45 31 356 342 322 306 302 302 302 296 289 287 290
266 264 253 242 258 255 252 248 240 249 267 278 314 298 281 230 243 257 254 252 230 229 243 258 256 238 68 24 51 70 78 60 33 351 323 301 297 301 304 303 303 303 305
271 264 256 249 249 260 265 255 234 253 251 268 253 245 252 237 225 249 267 286 288 256 269 272 293 66 76 73 85 94 92 49 6 334 310 295 295 304 310 308 307 300 299